| time (UTC) | temp F | wind direction | speed MPH | gust MPH | rain 1hr in | rain 24hr in | rain mn in | humidity % | barometer mb |
| 20260902182400 | 84 | 293 | 0.0 | 0.0 | 0.00 | 0.00 | 0.00 | 50 | 1020.4 |
| 20260902181859 | 84 | 285 | 0.0 | 1.0 | 0.00 | 0.00 | 0.00 | 49 | 1020.3 |
| 20260902181358 | 85 | 283 | 0.0 | 1.0 | 0.00 | 0.00 | 0.00 | 48 | 1020.2 |
| 20260902180854 | 85 | 283 | 0.0 | 4.0 | 0.00 | 0.00 | 0.00 | 48 | 1020.2 |
| 20260902180406 | 85 | 283 | 0.0 | 4.0 | 0.00 | 0.00 | 0.00 | 47 | 1019.9 |
| 20260902175851 | 85 | 276 | 0.0 | 4.0 | 0.00 | 0.00 | 0.00 | 46 | 1019.8 |
| 20260902175349 | 86 | 276 | 0.0 | 0.0 | 0.00 | 0.00 | 0.00 | 46 | 1019.7 |
| 20260902174847 | 86 | 276 | 0.0 | 0.0 | 0.00 | 0.00 | 0.00 | 45 | 1019.6 |
| 20260902174347 | 87 | 276 | 0.0 | 1.0 | 0.00 | 0.00 | 0.00 | 44 | 1019.6 |
| 20260902172342 | 89 | 277 | 0.0 | 1.0 | 0.00 | 0.00 | 0.00 | 41 | 1019.6 |
| 20260902171838 | 90 | 277 | 0.0 | 1.0 | 0.00 | 0.00 | 0.00 | 40 | 1019.5 |
| 20260902171335 | 90 | 277 | 0.0 | 1.0 | 0.00 | 0.00 | 0.00 | 40 | 1019.5 |
| 20260902170836 | 91 | 277 | 0.0 | 3.0 | 0.00 | 0.00 | 0.00 | 40 | 1019.5 |
| 20260902165832 | 91 | 277 | 0.0 | 0.0 | 0.00 | 0.00 | 0.00 | 39 | 1019.4 |
| 20260902165333 | 91 | 278 | 1.0 | 7.0 | 0.00 | 0.00 | 0.00 | 39 | 1019.4 |
| 20260902163820 | 91 | 297 | 0.0 | 5.0 | 0.00 | 0.00 | 0.00 | 39 | 1019.6 |
| 20260902163320 | 91 | 255 | 0.0 | 5.0 | 0.00 | 0.00 | 0.00 | 39 | 1019.7 |
| 20260902162821 | 90 | 309 | 0.0 | 0.0 | 0.00 | 0.00 | 0.00 | 39 | 1019.7 |
| 20260902162323 | 90 | 300 | 0.0 | 0.0 | 0.00 | 0.00 | 0.00 | 38 | 1019.7 |
| 20260902161821 | 90 | 300 | 0.0 | 0.0 | 0.00 | 0.00 | 0.00 | 38 | 1019.7 |
| 20260902161321 | 91 | 302 | 0.0 | 1.0 | 0.00 | 0.00 | 0.00 | 37 | 1019.8 |
| 20260902160820 | 91 | 304 | 0.0 | 1.0 | 0.00 | 0.00 | 0.00 | 37 | 1019.8 |
| 20260902160320 | 91 | 300 | 0.0 | 5.0 | 0.00 | 0.00 | 0.00 | 36 | 1019.8 |
| 20260902155820 | 92 | 303 | 0.0 | 5.0 | 0.00 | 0.00 | 0.00 | 36 | 1019.9 |
| 20260902155319 | 92 | 265 | 0.0 | 2.0 | 0.00 | 0.00 | 0.00 | 35 | 1019.9 |
| 20260902154821 | 93 | 258 | 0.0 | 6.0 | 0.00 | 0.00 | 0.00 | 35 | 1019.8 |
| 20260902154318 | 93 | 319 | 0.0 | 6.0 | 0.00 | 0.00 | 0.00 | 33 | 1019.9 |
| 20260902153821 | 93 | 352 | 0.0 | 6.0 | 0.00 | 0.00 | 0.00 | 33 | 1020.0 |
| 20260902153318 | 93 | 1 | 0.0 | 6.0 | 0.00 | 0.00 | 0.00 | 33 | 1020.0 |
| 20260902152817 | 93 | 326 | 1.0 | 6.0 | 0.00 | 0.00 | 0.00 | 33 | 1020.0 |
| 20260902151812 | 93 | 266 | 1.0 | 8.0 | 0.00 | 0.00 | 0.00 | 32 | 1019.9 |
| 20260902151311 | 93 | 183 | 1.0 | 8.0 | 0.00 | 0.00 | 0.00 | 31 | 1019.8 |
| 20260902150811 | 92 | 274 | 1.0 | 7.0 | 0.00 | 0.00 | 0.00 | 33 | 1019.8 |
| 20260902150312 | 92 | 266 | 0.0 | 4.0 | 0.00 | 0.00 | 0.00 | 35 | 1019.8 |
| 20260902145812 | 92 | 265 | 1.0 | 7.0 | 0.00 | 0.00 | 0.00 | 33 | 1019.7 |
| 20260902145311 | 92 | 294 | 1.0 | 7.0 | 0.00 | 0.00 | 0.00 | 32 | 1019.7 |
| 20260902144815 | 92 | 278 | 0.0 | 6.0 | 0.00 | 0.00 | 0.00 | 32 | 1019.7 |
| 20260902144312 | 93 | 292 | 0.0 | 4.0 | 0.00 | 0.00 | 0.00 | 32 | 1019.8 |
| 20260902143813 | 93 | 310 | 0.0 | 2.0 | 0.00 | 0.00 | 0.00 | 32 | 1019.8 |
| 20260902143312 | 93 | 187 | 0.0 | 2.0 | 0.00 | 0.00 | 0.00 | 33 | 1019.8 |
| 20260902142813 | 93 | 198 | 0.0 | 2.0 | 0.00 | 0.00 | 0.00 | 33 | 1019.7 |
| 20260902142312 | 93 | 198 | 0.0 | 3.0 | 0.00 | 0.00 | 0.00 | 33 | 1019.9 |
| 20260902141807 | 93 | 257 | 1.0 | 6.0 | 0.00 | 0.00 | 0.00 | 33 | 1020.0 |
| 20260902141308 | 93 | 314 | 1.0 | 7.0 | 0.00 | 0.00 | 0.00 | 32 | 1020.0 |
| 20260902140809 | 93 | 290 | 2.0 | 8.0 | 0.00 | 0.00 | 0.00 | 33 | 1020.2 |
| 20260902140309 | 93 | 252 | 2.0 | 8.0 | 0.00 | 0.00 | 0.00 | 32 | 1020.4 |
| 20260902135807 | 94 | 278 | 1.0 | 7.0 | 0.00 | 0.00 | 0.00 | 32 | 1020.4 |
| 20260902135307 | 94 | 151 | 1.0 | 6.0 | 0.00 | 0.00 | 0.00 | 33 | 1020.5 |
| 20260902134809 | 94 | 272 | 1.0 | 5.0 | 0.00 | 0.00 | 0.00 | 32 | 1020.4 |
| 20260902134309 | 93 | 279 | 0.0 | 3.0 | 0.00 | 0.00 | 0.00 | 33 | 1020.5 |
| 20260902133808 | 93 | 190 | 0.0 | 2.0 | 0.00 | 0.00 | 0.00 | 34 | 1020.6 |
| 20260902133307 | 92 | 345 | 1.0 | 6.0 | 0.00 | 0.00 | 0.00 | 34 | 1020.7 |
| 20260902132807 | 92 | 149 | 1.0 | 9.0 | 0.00 | 0.00 | 0.00 | 33 | 1020.7 |
| 20260902131308 | 93 | 154 | 0.0 | 5.0 | 0.00 | 0.00 | 0.00 | 32 | 1020.9 |
| 20260902130807 | 93 | 172 | 1.0 | 8.0 | 0.00 | 0.00 | 0.00 | 34 | 1020.9 |
| 20260902130309 | 92 | 221 | 1.0 | 8.0 | 0.00 | 0.00 | 0.00 | 34 | 1021.0 |
| 20260902125807 | 93 | 302 | 1.0 | 7.0 | 0.00 | 0.00 | 0.00 | 32 | 1021.0 |
| 20260902125307 | 92 | 285 | 0.0 | 4.0 | 0.00 | 0.00 | 0.00 | 36 | 1021.0 |
| 20260902124806 | 92 | 349 | 1.0 | 9.0 | 0.00 | 0.00 | 0.00 | 35 | 1021.2 |
| 20260902124305 | 92 | 270 | 1.0 | 9.0 | 0.00 | 0.00 | 0.00 | 35 | 1021.2 |
| 20260902123804 | 92 | 271 | 1.0 | 8.0 | 0.00 | 0.00 | 0.00 | 35 | 1021.3 |
| 20260902123304 | 92 | 185 | 2.0 | 10.0 | 0.00 | 0.00 | 0.00 | 36 | 1021.3 |
| 20260902122305 | 92 | 256 | 1.0 | 7.0 | 0.00 | 0.00 | 0.00 | 35 | 1021.5 |
| 20260902121804 | 92 | 286 | 1.0 | 8.0 | 0.00 | 0.00 | 0.00 | 36 | 1021.5 |
| 20260902121302 | 91 | 306 | 1.0 | 8.0 | 0.00 | 0.00 | 0.00 | 36 | 1021.6 |
| 20260902120759 | 91 | 299 | 1.0 | 7.0 | 0.00 | 0.00 | 0.00 | 35 | 1021.6 |
| 20260902120300 | 91 | 158 | 0.0 | 8.0 | 0.00 | 0.00 | 0.00 | 37 | 1021.6 |
| 20260902115800 | 91 | 321 | 1.0 | 9.0 | 0.00 | 0.00 | 0.00 | 38 | 1021.7 |
| 20260902115258 | 91 | 276 | 1.0 | 9.0 | 0.00 | 0.00 | 0.00 | 37 | 1021.7 |
| 20260902114758 | 91 | 342 | 1.0 | 7.0 | 0.00 | 0.00 | 0.00 | 37 | 1021.8 |
| 20260902113755 | 90 | 326 | 1.0 | 6.0 | 0.00 | 0.00 | 0.00 | 38 | 1021.8 |
| 20260902112740 | 90 | 288 | 0.0 | 7.0 | 0.00 | 0.00 | 0.00 | 39 | 1021.8 |
| 20260902112236 | 90 | 311 | 0.0 | 7.0 | 0.00 | 0.00 | 0.00 | 39 | 1021.8 |
| 20260902111730 | 90 | 275 | 1.0 | 8.0 | 0.00 | 0.00 | 0.00 | 41 | 1021.9 |
| 20260902111223 | 89 | 296 | 2.0 | 8.0 | 0.00 | 0.00 | 0.00 | 40 | 1022.0 |
| 20260902110717 | 89 | 272 | 2.0 | 8.0 | 0.00 | 0.00 | 0.00 | 38 | 1022.0 |
| 20260902110212 | 89 | 278 | 1.0 | 8.0 | 0.00 | 0.00 | 0.00 | 40 | 1022.0 |
| 20260902105705 | 89 | 281 | 2.0 | 8.0 | 0.00 | 0.00 | 0.00 | 38 | 1022.0 |
| 20260902105200 | 89 | 277 | 1.0 | 8.0 | 0.00 | 0.00 | 0.00 | 39 | 1022.1 |
| 20260902104655 | 89 | 176 | 0.0 | 2.0 | 0.00 | 0.00 | 0.00 | 39 | 1022.2 |
| 20260902104148 | 89 | 331 | 0.0 | 3.0 | 0.00 | 0.00 | 0.00 | 38 | 1022.2 |
| 20260902103641 | 89 | 354 | 1.0 | 7.0 | 0.00 | 0.00 | 0.00 | 38 | 1022.2 |
| 20260902103135 | 89 | 356 | 1.0 | 8.0 | 0.00 | 0.00 | 0.00 | 39 | 1022.3 |
| 20260902102630 | 89 | 333 | 1.0 | 8.0 | 0.00 | 0.00 | 0.00 | 38 | 1022.4 |
| 20260902102122 | 89 | 252 | 1.0 | 4.0 | 0.00 | 0.00 | 0.00 | 39 | 1022.4 |
| 20260902101112 | 88 | 310 | 0.0 | 4.0 | 0.00 | 0.00 | 0.00 | 40 | 1022.5 |
| 20260902100605 | 88 | 300 | 0.0 | 3.0 | 0.00 | 0.00 | 0.00 | 41 | 1022.4 |
| 20260902100106 | 88 | 288 | 0.0 | 3.0 | 0.00 | 0.00 | 0.00 | 40 | 1022.5 |
| 20260902095550 | 88 | 313 | 0.0 | 4.0 | 0.00 | 0.00 | 0.00 | 40 | 1022.6 |
| 20260902095046 | 88 | 263 | 0.0 | 4.0 | 0.00 | 0.00 | 0.00 | 40 | 1022.6 |
| 20260902094542 | 87 | 158 | 0.0 | 4.0 | 0.00 | 0.00 | 0.00 | 43 | 1022.6 |
| 20260902094033 | 87 | 184 | 0.0 | 4.0 | 0.00 | 0.00 | 0.00 | 44 | 1022.6 |
| 20260902092515 | 86 | 117 | 1.0 | 5.0 | 0.00 | 0.00 | 0.00 | 45 | 1022.8 |
| 20260902092010 | 86 | 257 | 1.0 | 6.0 | 0.00 | 0.00 | 0.00 | 46 | 1022.9 |
| 20260902091504 | 86 | 285 | 0.0 | 5.0 | 0.00 | 0.00 | 0.00 | 46 | 1022.7 |
| 20260902090453 | 85 | 284 | 0.0 | 3.0 | 0.00 | 0.00 | 0.00 | 47 | 1022.7 |
| 20260902085945 | 85 | 132 | 0.0 | 3.0 | 0.00 | 0.00 | 0.00 | 48 | 1022.7 |
| 20260902084935 | 84 | 110 | 0.0 | 1.0 | 0.00 | 0.00 | 0.00 | 54 | 1022.7 |
| 20260902084428 | 84 | 103 | 0.0 | 1.0 | 0.00 | 0.00 | 0.00 | 54 | 1022.7 |
| 20260902083922 | 83 | 103 | 0.0 | 1.0 | 0.00 | 0.00 | 0.00 | 57 | 1022.6 |
| 20260902083415 | 83 | 103 | 0.0 | 1.0 | 0.00 | 0.00 | 0.00 | 58 | 1022.7 |
| 20260902082915 | 83 | 103 | 0.0 | 1.0 | 0.00 | 0.00 | 0.00 | 58 | 1022.5 |
| 20260902082415 | 82 | 103 | 0.0 | 1.0 | 0.00 | 0.00 | 0.00 | 59 | 1022.6 |
| 20260902081913 | 81 | 103 | 0.0 | 1.0 | 0.00 | 0.00 | 0.00 | 60 | 1022.6 |
| 20260902081413 | 81 | 103 | 0.0 | 1.0 | 0.00 | 0.00 | 0.00 | 60 | 1022.6 |
| 20260902080910 | 80 | 103 | 0.0 | 1.0 | 0.00 | 0.00 | 0.00 | 60 | 1022.6 |
| 20260902080406 | 80 | 103 | 0.0 | 1.0 | 0.00 | 0.00 | 0.00 | 62 | 1022.6 |
| 20260902075906 | 79 | 102 | 0.0 | 1.0 | 0.00 | 0.00 | 0.00 | 62 | 1022.6 |
| 20260902075403 | 79 | 102 | 0.0 | 2.0 | 0.00 | 0.00 | 0.00 | 62 | 1022.6 |
| 20260902074903 | 78 | 103 | 0.0 | 2.0 | 0.00 | 0.00 | 0.00 | 63 | 1022.5 |
| 20260902073401 | 77 | 102 | 0.0 | 5.0 | 0.00 | 0.00 | 0.00 | 64 | 1022.4 |
| 20260902072857 | 76 | 103 | 0.0 | 5.0 | 0.00 | 0.00 | 0.00 | 64 | 1022.4 |
| 20260902072355 | 76 | 99 | 0.0 | 3.0 | 0.00 | 0.00 | 0.00 | 66 | 1022.4 |
| 20260902071352 | 74 | 99 | 0.0 | 4.0 | 0.00 | 0.00 | 0.00 | 67 | 1022.5 |
| 20260902070849 | 74 | 96 | 0.0 | 4.0 | 0.00 | 0.00 | 0.00 | 70 | 1022.6 |
| 20260902065345 | 72 | 217 | 0.0 | 1.0 | 0.00 | 0.00 | 0.00 | 76 | 1022.6 |
| 20260902064847 | 72 | 267 | 0.0 | 0.0 | 0.00 | 0.00 | 0.00 | 77 | 1022.5 |
| 20260902064340 | 71 | 269 | 0.0 | 0.0 | 0.00 | 0.00 | 0.00 | 80 | 1022.5 |
| 20260902063834 | 69 | 269 | 0.0 | 0.0 | 0.00 | 0.00 | 0.00 | 82 | 1022.4 |
| 20260902063335 | 69 | 269 | 0.0 | 0.0 | 0.00 | 0.00 | 0.00 | 83 | 1022.5 |
| 20260902062834 | 68 | 269 | 0.0 | 0.0 | 0.00 | 0.00 | 0.00 | 84 | 1022.5 |
| 20260902062336 | 67 | 269 | 0.0 | 0.0 | 0.00 | 0.00 | 0.00 | 84 | 1022.5 |
| 20260902061836 | 67 | 269 | 0.0 | 0.0 | 0.00 | 0.00 | 0.00 | 85 | 1022.5 |
| 20260902061334 | 66 | 269 | 0.0 | 0.0 | 0.00 | 0.00 | 0.00 | 86 | 1022.5 |
| 20260902060830 | 65 | 269 | 0.0 | 0.0 | 0.00 | 0.00 | 0.00 | 86 | 1022.4 |
| 20260902060330 | 65 | 269 | 0.0 | 0.0 | 0.00 | 0.00 | 0.00 | 86 | 1022.4 |
| 20260902055829 | 65 | 269 | 0.0 | 0.0 | 0.00 | 0.00 | 0.00 | 86 | 1022.3 |
| 20260902055328 | 65 | 269 | 0.0 | 1.0 | 0.00 | 0.00 | 0.00 | 86 | 1022.3 |
| 20260902054827 | 65 | 269 | 0.0 | 2.0 | 0.00 | 0.00 | 0.00 | 85 | 1022.3 |
| 20260902054328 | 65 | 269 | 0.0 | 2.0 | 0.00 | 0.00 | 0.00 | 85 | 1022.4 |
| 20260902053826 | 65 | 267 | 0.0 | 0.0 | 0.00 | 0.00 | 0.00 | 85 | 1022.4 |
| 20260902053342 | 65 | 267 | 0.0 | 0.0 | 0.00 | 0.00 | 0.00 | 86 | 1022.2 |
| 20260902052327 | 64 | 267 | 0.0 | 0.0 | 0.00 | 0.00 | 0.00 | 87 | 1022.1 |
| 20260902051827 | 64 | 267 | 0.0 | 0.0 | 0.00 | 0.00 | 0.00 | 88 | 1022.1 |
| 20260902051326 | 64 | 267 | 0.0 | 0.0 | 0.00 | 0.00 | 0.00 | 88 | 1022.0 |
| 20260902050825 | 63 | 267 | 0.0 | 0.0 | 0.00 | 0.00 | 0.00 | 87 | 1022.0 |
| 20260902050324 | 63 | 267 | 0.0 | 0.0 | 0.00 | 0.00 | 0.00 | 87 | 1022.0 |
| 20260902045824 | 63 | 267 | 0.0 | 0.0 | 0.00 | 0.00 | 0.00 | 87 | 1022.0 |
| 20260902043826 | 64 | 263 | 0.0 | 0.0 | 0.00 | 0.00 | 0.00 | 87 | 1022.0 |
| 20260902042320 | 64 | 263 | 0.0 | 0.0 | 0.00 | 0.00 | 0.00 | 86 | 1022.0 |
| 20260902041822 | 64 | 263 | 0.0 | 0.0 | 0.00 | 0.00 | 0.00 | 86 | 1021.9 |
| 20260902041320 | 64 | 269 | 0.0 | 0.0 | 0.00 | 0.00 | 0.00 | 86 | 1021.9 |
| 20260902040821 | 64 | 269 | 0.0 | 0.0 | 0.00 | 0.00 | 0.00 | 86 | 1021.9 |
| 20260902040320 | 64 | 269 | 0.0 | 1.0 | 0.00 | 0.00 | 0.00 | 86 | 1021.8 |
| 20260902035820 | 64 | 269 | 0.0 | 1.0 | 0.00 | 0.00 | 0.00 | 86 | 1021.9 |
| 20260902035321 | 64 | 269 | 0.0 | 3.0 | 0.00 | 0.00 | 0.00 | 85 | 1021.8 |
| 20260902034822 | 65 | 269 | 0.0 | 3.0 | 0.00 | 0.00 | 0.00 | 85 | 1021.8 |
| 20260902034319 | 65 | 266 | 0.0 | 0.0 | 0.00 | 0.00 | 0.00 | 85 | 1021.9 |
| 20260902033817 | 65 | 266 | 0.0 | 0.0 | 0.00 | 0.00 | 0.00 | 85 | 1021.8 |
| 20260902033317 | 65 | 266 | 0.0 | 0.0 | 0.00 | 0.00 | 0.00 | 85 | 1021.8 |
| 20260902032817 | 65 | 266 | 0.0 | 0.0 | 0.00 | 0.00 | 0.00 | 85 | 1021.9 |
| 20260902032316 | 65 | 266 | 0.0 | 0.0 | 0.00 | 0.00 | 0.00 | 85 | 1021.9 |
| 20260902031815 | 65 | 266 | 0.0 | 0.0 | 0.00 | 0.00 | 0.00 | 84 | 1022.0 |
| 20260902031328 | 65 | 268 | 0.0 | 0.0 | 0.00 | 0.00 | 0.00 | 84 | 1022.1 |
| 20260902030817 | 65 | 268 | 0.0 | 0.0 | 0.00 | 0.00 | 0.00 | 85 | 1022.0 |
| 20260902030317 | 66 | 268 | 0.0 | 1.0 | 0.00 | 0.00 | 0.00 | 84 | 1022.0 |
| 20260902025808 | 66 | 268 | 0.0 | 1.0 | 0.00 | 0.00 | 0.00 | 84 | 1022.0 |
| 20260902025306 | 66 | 266 | 0.0 | 0.0 | 0.00 | 0.00 | 0.00 | 85 | 1022.0 |
| 20260902024756 | 65 | 266 | 0.0 | 0.0 | 0.00 | 0.00 | 0.00 | 85 | 1022.0 |
| 20260902024250 | 65 | 266 | 0.0 | 0.0 | 0.00 | 0.00 | 0.00 | 85 | 1022.0 |
| 20260902023745 | 65 | 273 | 0.0 | 3.0 | 0.00 | 0.00 | 0.00 | 84 | 1022.0 |
| 20260902023238 | 66 | 276 | 0.0 | 4.0 | 0.00 | 0.00 | 0.00 | 84 | 1022.0 |
| 20260902022227 | 66 | 274 | 0.0 | 2.0 | 0.00 | 0.00 | 0.00 | 84 | 1022.0 |
| 20260902021721 | 66 | 275 | 0.0 | 2.0 | 0.00 | 0.00 | 0.00 | 84 | 1022.0 |
| 20260902021227 | 66 | 272 | 0.0 | 1.0 | 0.00 | 0.00 | 0.00 | 83 | 1021.9 |
| 20260902020707 | 66 | 272 | 0.0 | 0.0 | 0.00 | 0.00 | 0.00 | 83 | 1021.9 |
| 20260902020203 | 67 | 272 | 0.0 | 0.0 | 0.00 | 0.00 | 0.00 | 83 | 1021.9 |
| 20260902015657 | 67 | 272 | 0.0 | 0.0 | 0.00 | 0.00 | 0.00 | 83 | 1021.9 |
| 20260902015151 | 67 | 273 | 0.0 | 3.0 | 0.00 | 0.00 | 0.00 | 83 | 1022.0 |
| 20260902014648 | 67 | 273 | 0.0 | 3.0 | 0.00 | 0.00 | 0.00 | 83 | 1022.0 |
| 20260902014146 | 67 | 275 | 0.0 | 2.0 | 0.00 | 0.00 | 0.00 | 82 | 1021.9 |
| 20260902013645 | 67 | 278 | 0.0 | 3.0 | 0.00 | 0.00 | 0.00 | 82 | 1022.0 |
| 20260902013142 | 67 | 274 | 0.0 | 3.0 | 0.00 | 0.00 | 0.00 | 81 | 1022.0 |
| 20260902012642 | 68 | 273 | 0.0 | 3.0 | 0.00 | 0.00 | 0.00 | 81 | 1022.1 |
| 20260902012144 | 68 | 265 | 0.0 | 1.0 | 0.00 | 0.00 | 0.00 | 81 | 1021.9 |
| 20260902011642 | 68 | 264 | 0.0 | 0.0 | 0.00 | 0.00 | 0.00 | 81 | 1021.9 |
| 20260902011145 | 68 | 264 | 0.0 | 2.0 | 0.00 | 0.00 | 0.00 | 81 | 1021.9 |
| 20260902010655 | 68 | 264 | 0.0 | 2.0 | 0.00 | 0.00 | 0.00 | 80 | 1022.0 |
| 20260902010153 | 69 | 271 | 0.0 | 1.0 | 0.00 | 0.00 | 0.00 | 80 | 1022.1 |
| 20260902005638 | 69 | 271 | 0.0 | 1.0 | 0.00 | 0.00 | 0.00 | 80 | 1022.0 |
| 20260902005138 | 69 | 271 | 0.0 | 0.0 | 0.00 | 0.00 | 0.00 | 80 | 1022.1 |
| 20260902004634 | 69 | 271 | 0.0 | 3.0 | 0.00 | 0.00 | 0.00 | 80 | 1022.0 |
| 20260902004133 | 69 | 271 | 0.0 | 3.0 | 0.00 | 0.00 | 0.00 | 80 | 1022.0 |
| 20260902003633 | 69 | 266 | 0.0 | 0.0 | 0.00 | 0.00 | 0.00 | 80 | 1022.0 |
| 20260902003130 | 69 | 266 | 0.0 | 0.0 | 0.00 | 0.00 | 0.00 | 79 | 1022.1 |
| 20260902002628 | 69 | 266 | 0.0 | 3.0 | 0.00 | 0.00 | 0.00 | 79 | 1022.0 |
| 20260902002128 | 69 | 266 | 0.0 | 3.0 | 0.00 | 0.00 | 0.00 | 79 | 1022.0 |
| 20260902001126 | 69 | 263 | 0.0 | 0.0 | 0.00 | 0.00 | 0.00 | 79 | 1022.1 |
| 20260902000625 | 69 | 264 | 0.0 | 1.0 | 0.00 | 0.00 | 0.00 | 78 | 1022.2 |
| 20260902000122 | 69 | 269 | 0.0 | 3.0 | 0.00 | 0.00 | 0.00 | 78 | 1022.2 |
| 20260901235621 | 69 | 271 | 0.0 | 3.0 | 0.00 | 0.00 | 0.00 | 78 | 1022.2 |
| 20260901235121 | 69 | 270 | 0.0 | 4.0 | 0.00 | 0.00 | 0.00 | 78 | 1022.3 |
| 20260901234619 | 69 | 262 | 0.0 | 4.0 | 0.00 | 0.00 | 0.00 | 78 | 1022.2 |
| 20260901234119 | 70 | 274 | 0.0 | 1.0 | 0.00 | 0.00 | 0.00 | 78 | 1022.2 |
| 20260901233618 | 70 | 272 | 0.0 | 0.0 | 0.00 | 0.00 | 0.00 | 78 | 1022.2 |
| 20260901233118 | 70 | 273 | 0.0 | 1.0 | 0.00 | 0.00 | 0.00 | 78 | 1022.2 |
| 20260901232617 | 70 | 272 | 0.0 | 2.0 | 0.00 | 0.00 | 0.00 | 77 | 1022.2 |
| 20260901232117 | 70 | 272 | 0.0 | 2.0 | 0.00 | 0.00 | 0.00 | 77 | 1022.3 |
| 20260901231115 | 70 | 271 | 0.0 | 0.0 | 0.00 | 0.00 | 0.00 | 76 | 1022.4 |
| 20260901230615 | 70 | 272 | 0.0 | 5.0 | 0.00 | 0.00 | 0.00 | 75 | 1022.3 |
| 20260901230130 | 71 | 272 | 0.0 | 5.0 | 0.00 | 0.00 | 0.00 | 75 | 1022.3 |
| 20260901225613 | 71 | 274 | 0.0 | 1.0 | 0.00 | 0.00 | 0.00 | 74 | 1022.4 |
| 20260901225112 | 71 | 278 | 0.0 | 3.0 | 0.00 | 0.00 | 0.00 | 74 | 1022.5 |
| 20260901224610 | 72 | 268 | 0.0 | 3.0 | 0.00 | 0.00 | 0.00 | 74 | 1022.5 |
| 20260901223607 | 72 | 282 | 0.0 | 5.0 | 0.00 | 0.00 | 0.00 | 73 | 1022.3 |
| 20260901223101 | 72 | 271 | 0.0 | 2.0 | 0.00 | 0.00 | 0.00 | 74 | 1022.4 |
| 20260901222556 | 72 | 274 | 0.0 | 2.0 | 0.00 | 0.00 | 0.00 | 74 | 1022.3 |
| 20260901222052 | 72 | 274 | 0.0 | 4.0 | 0.00 | 0.00 | 0.00 | 73 | 1022.3 |
| 20260901221542 | 72 | 274 | 0.0 | 4.0 | 0.00 | 0.00 | 0.00 | 73 | 1022.4 |
| 20260901220531 | 72 | 272 | 0.0 | 3.0 | 0.00 | 0.00 | 0.00 | 72 | 1022.4 |
| 20260901215013 | 72 | 271 | 0.0 | 2.0 | 0.00 | 0.00 | 0.00 | 72 | 1022.2 |
| 20260901213455 | 72 | 274 | 0.0 | 2.0 | 0.00 | 0.00 | 0.00 | 70 | 1022.0 |
| 20260901212949 | 72 | 275 | 0.0 | 0.0 | 0.00 | 0.00 | 0.00 | 70 | 1022.0 |
| 20260901212445 | 72 | 276 | 0.0 | 0.0 | 0.00 | 0.00 | 0.00 | 70 | 1022.0 |
| 20260901211937 | 72 | 275 | 0.0 | 4.0 | 0.00 | 0.00 | 0.00 | 69 | 1021.9 |
| 20260901211433 | 72 | 278 | 0.0 | 4.0 | 0.00 | 0.00 | 0.00 | 68 | 1021.9 |
| 20260901210928 | 73 | 275 | 0.0 | 3.0 | 0.00 | 0.00 | 0.00 | 67 | 1021.9 |
| 20260901210427 | 73 | 268 | 0.0 | 0.0 | 0.00 | 0.00 | 0.00 | 67 | 1021.8 |
| 20260901205930 | 73 | 268 | 0.0 | 0.0 | 0.00 | 0.00 | 0.00 | 67 | 1021.8 |
| 20260901205428 | 73 | 268 | 0.0 | 0.0 | 0.00 | 0.00 | 0.00 | 67 | 1021.7 |
| 20260901204929 | 73 | 268 | 0.0 | 0.0 | 0.00 | 0.00 | 0.00 | 67 | 1021.7 |
| 20260901204427 | 73 | 268 | 0.0 | 2.0 | 0.00 | 0.00 | 0.00 | 66 | 1021.7 |
| 20260901203425 | 73 | 266 | 0.0 | 3.0 | 0.00 | 0.00 | 0.00 | 65 | 1021.7 |
| 20260901202927 | 73 | 272 | 0.0 | 3.0 | 0.00 | 0.00 | 0.00 | 64 | 1021.7 |
| 20260901202426 | 74 | 276 | 0.0 | 2.0 | 0.00 | 0.00 | 0.00 | 63 | 1021.6 |
| 20260901201927 | 74 | 269 | 0.0 | 1.0 | 0.00 | 0.00 | 0.00 | 62 | 1021.7 |
| 20260901201426 | 74 | 269 | 0.0 | 1.0 | 0.00 | 0.00 | 0.00 | 62 | 1021.7 |
| 20260901200928 | 74 | 269 | 0.0 | 1.0 | 0.00 | 0.00 | 0.00 | 62 | 1021.6 |
| 20260901200427 | 74 | 268 | 0.0 | 1.0 | 0.00 | 0.00 | 0.00 | 62 | 1021.6 |
| 20260901195426 | 75 | 275 | 0.0 | 4.0 | 0.00 | 0.00 | 0.00 | 60 | 1021.5 |
| 20260901194928 | 76 | 268 | 0.0 | 1.0 | 0.00 | 0.00 | 0.00 | 59 | 1021.5 |
| 20260901194420 | 76 | 267 | 0.0 | 1.0 | 0.00 | 0.00 | 0.00 | 58 | 1021.5 |
| 20260901193913 | 77 | 268 | 0.0 | 0.0 | 0.00 | 0.00 | 0.00 | 57 | 1021.5 |
| 20260901193407 | 77 | 267 | 0.0 | 0.0 | 0.00 | 0.00 | 0.00 | 56 | 1021.4 |
| 20260901192903 | 77 | 267 | 0.0 | 0.0 | 0.00 | 0.00 | 0.00 | 55 | 1021.3 |
| 20260901192352 | 77 | 267 | 0.0 | 1.0 | 0.00 | 0.00 | 0.00 | 54 | 1021.3 |
| 20260901191848 | 78 | 267 | 0.0 | 1.0 | 0.00 | 0.00 | 0.00 | 53 | 1021.2 |
| 20260901191341 | 78 | 269 | 0.0 | 0.0 | 0.00 | 0.00 | 0.00 | 52 | 1021.3 |
| 20260901190838 | 78 | 271 | 0.0 | 0.0 | 0.00 | 0.00 | 0.00 | 52 | 1021.2 |
| 20260901190330 | 79 | 274 | 0.0 | 0.0 | 0.00 | 0.00 | 0.00 | 51 | 1021.1 |
| 20260901185320 | 80 | 276 | 0.0 | 0.0 | 0.00 | 0.00 | 0.00 | 49 | 1021.0 |
| 20260901184814 | 80 | 277 | 0.0 | 0.0 | 0.00 | 0.00 | 0.00 | 48 | 1021.0 |
| 20260901184306 | 81 | 278 | 0.0 | 0.0 | 0.00 | 0.00 | 0.00 | 48 | 1021.0 |
| 20260901183800 | 81 | 278 | 0.0 | 0.0 | 0.00 | 0.00 | 0.00 | 48 | 1020.9 |
| 20260901183254 | 82 | 278 | 0.0 | 0.0 | 0.00 | 0.00 | 0.00 | 47 | 1020.9 |
| 20260901182747 | 82 | 278 | 0.0 | 0.0 | 0.00 | 0.00 | 0.00 | 46 | 1020.8 |